This demonstration page uses our WeatherBlox Daily Observations layout. Learn more.

Left ArrowRight Arrow

39.92423, -83.80882

Hourly Observations for August 30, 2019

Temp ( °F °C ) Dew Point ( °F °C ) Humidity (%) Winds ( mph kmh ) Pressure ( in mb ) Visibility ( mi km ) Precip ( " mm )
12:56 am 00:56 Cloudy 70 21.1 63 17.2 79 79 SW 9 15 30.01 1016 10 16.0934 N/A
1:56 am 01:56 Cloudy 70 21.1 62 16.7 76 76 SW 9 15 30.01 1016 10 16.0934 N/A
2:56 am 02:56 Mostly Cloudy 70 21.1 62 16.7 76 76 SW 12 19 30 1016 10 16.0934 N/A
3:56 am 03:56 Clear 71 21.7 61 16.1 71 71 SW 12 19 30 1016 10 16.0934 N/A
4:56 am 04:56 Clear 68 20 61 16.1 78 78 SW 9 15 30 1016 10 16.0934 N/A
5:56 am 05:56 Clear 66 18.9 61 16.1 84 84 SW 8 13 30 1016 10 16.0934 N/A
6:56 am 06:56 Clear 67 19.4 61 16.1 81 81 WSW 8 13 30.03 1017 10 16.0934 N/A
7:56 am 07:56 Sunny 69 20.6 61 16.1 76 76 WSW 10 17 30.05 1018 10 16.0934 N/A
8:56 am 08:56 Sunny 70 21.1 63 17.2 79 79 W 7 11 30.07 1018 10 16.0934 N/A
9:56 am 09:56 Sunny 74 23.3 64 17.8 71 71 W 8 13 30.08 1019 10 16.0934 N/A
10:56 am 10:56 Sunny 76 24.4 66 18.9 72 72 VRB 6 9 30.07 1018 10 16.0934 N/A
11:56 am 11:56 Sunny 77 25 68 20 74 74 WSW 6 9 30.09 1019 10 16.0934 N/A
12:56 pm 12:56 Sunny 79 26.1 69 20.6 72 72 VRB 7 11 30.09 1019 10 16.0934 N/A
1:56 pm 13:56 Sunny 82 27.8 70 21.1 67 67 W 12 19 30.08 1019 10 16.0934 N/A
2:56 pm 14:56 Cloudy 83 28.3 68 20 61 61 WNW 12 19 30.07 1018 10 16.0934 N/A
3:56 pm 15:56 Mostly Cloudy 83 28.3 69 20.6 63 63 NW 6 9 30.06 1018 10 16.0934 N/A
4:56 pm 16:56 Mostly Sunny 82 27.8 67 19.4 60 60 NW 8 13 30.05 1018 10 16.0934 N/A
5:56 pm 17:56 Sunny 80 26.7 66 18.9 62 62 NNW 6 9 30.06 1018 10 16.0934 N/A
6:56 pm 18:56 Sunny 78 25.6 64 17.8 62 62 N 7 11 30.08 1019 10 16.0934 N/A
7:56 pm 19:56 Sunny 75 23.9 63 17.2 66 66 N 7 11 30.09 1019 10 16.0934 N/A
8:56 pm 20:56 Clear 72 22.2 62 16.7 71 71 NNW 3 6 30.14 1021 10 16.0934 N/A
9:56 pm 21:56 Clear 70 21.1 65 18.3 84 84 N N/A 30.15 1021 10 16.0934 N/A
10:56 pm 22:56 Clear 69 20.6 62 16.7 78 78 N 3 6 30.16 1022 10 16.0934 N/A
11:56 pm 23:56 Clear 65 18.3 62 16.7 90 90 NE 3 6 30.17 1022 10 16.0934 N/A

Powered by AerisWeather